Location: Boullarre
(49.1305°N, 3.0047°E)
Time: 07:47:49
(UTC+00:00)

BlueWalker 3 - Pass Details

Date: 03 February 2023
Orbit: 497 x 515 km, 53.2° (Epoch: 22 March)

Event Time Altitude Azimuth Distance (km) Brightness Sun altitude
Rises 18:31:49 0° 282° (WNW) 2,601 7.0 -17.2°
Reaches altitude 10° 18:34:05 10° 289° (WNW) 1,720 5.7 -17.6°
Maximum altitude 18:37:49 45° 2° (N) 706 2.6 -18.2°
Enters shadow 18:38:43 37° 41° (NE) 799 2.6 -18.3°
